Location: Plzen
(49.7500°N, 13.3670°E)
Time: 04:26:37
(UTC+02:00)

ISS - Pass Details

Date: 27 May 2021
Orbit: 417 x 422 km, 51.6° (Epoch: 13 June)

Event Time Altitude Azimuth Distance (km) Brightness Sun altitude
Rises 22:13:55 0° 288° (WNW) 2,367 1.1 -9.5°
Reaches altitude 10° 22:16:02 10° 285° (WNW) 1,502 -0.1 -9.7°
Maximum altitude 22:19:22 61° 204° (SSW) 481 -3.6 -10.0°
Enters shadow 22:22:01 15° 126° (SE) 1,231 -2.0 -10.3°
